Probability
12 13 19 26 25 20 15 11 8 7 6 6 6 6 6 4 2 1 0 0 0 0 0 0 0 0 0 0 0 0 0 0 0 0 0 0 0 0 0 0 0 0 0
18 18 23 29 28 23 17 12 8 7 6 6 6 6 5 4 2 0 0 0 0 0 0 0 0 0 0 0 0 0 0 0 0 0 0 0 0 0 0 0 0 0 0
25 25 27 32 32 27 20 13 9 7 5 4 4 4 4 3 1 0 0 0 0 0 0 0 0 0 0 0 0 0 0 0 0 0 0 0 0 0 0 0 0 0 0
29 28 30 34 35 31 23 16 11 7 5 4 3 3 3 1 0 0 0 0 0 0 0 0 0 0 0 0 0 0 0 0 0 0 0 0 0 0 0 0 0 0 0
29 29 30 34 36 33 27 19 12 8 6 4 3 3 2 1 0 1 1 1 0 0 0 0 0 0 0 0 0 0 0 0 0 0 0 0 0 0 0 0 0 0 0
28 27 29 33 35 33 29 22 14 9 6 4 3 3 2 1 0 1 2 1 0 0 0 0 0 0 0 0 0 0 0 0 0 0 0 0 0 0 0 0 0 0 0
26 26 28 31 32 31 28 24 17 11 8 5 4 3 2 0 0 1 2 1 0 0 0 0 0 0 0 0 0 0 0 0 0 0 0 0 0 0 0 0 0 0 0
24 25 27 28 29 29 28 25 19 14 10 8 5 4 2 1 1 2 2 1 0 0 0 0 0 0 0 0 0 0 0 0 0 0 0 0 0 0 0 0 0 0 0
22 23 25 25 25 26 26 23 18 13 10 8 7 6 4 2 2 3 3 2 0 0 0 0 0 1 1 1 0 0 0 0 0 0 0 0 0 0 0 0 0 0 0
20 21 21 21 21 22 22 19 15 11 8 6 6 6 4 3 3 3 2 1 0 0 0 0 0 1 2 1 0 0 0 0 0 0 0 0 0 0 0 0 0 0 0
19 19 19 18 18 19 18 16 12 8 6 5 4 4 4 3 2 2 1 0 0 0 0 0 1 1 1 1 0 0 0 0 0 0 0 0 0 0 0 0 0 0 0
16 17 17 16 16 16 14 12 9 7 6 5 4 3 3 1 1 1 0 0 0 0 0 1 2 1 0 0 0 0 0 0 0 0 0 0 0 0 1 1 1 2 2
13 13 14 14 14 13 10 7 6 6 6 5 4 3 2 1 0 0 0 0 0 0 0 1 2 2 1 0 0 0 0 0 0 0 0 0 0 1 1 2 3 4 5
11 11 12 12 11 9 6 4 4 5 6 5 4 3 2 1 0 0 0 0 0 0 0 0 1 1 1 0 0 0 0 0 0 0 0 0 1 2 2 3 3 3 5
9 9 10 10 10 8 5 4 3 4 4 4 3 2 2 1 0 0 0 0 0 0 0 0 0 0 0 0 0 0 0 0 0 0 0 0 1 2 3 2 1 1 2
7 7 7 8 8 7 5 4 3 3 2 2 1 1 1 0 0 0 0 0 0 0 0 0 0 0 0 0 0 0 0 0 0 0 0 0 1 2 2 1 0 0 1
6 6 5 5 5 5 5 4 2 1 1 0 0 0 0 0 0 0 0 0 0 0 0 0 0 0 0 0 0 1 1 0 0 0 0 0 0 1 1 0 1 1 1
4 4 4 3 3 3 3 2 1 0 0 0 0 0 0 0 0 0 0 0 0 0 0 0 0 0 0 0 0 1 1 1 0 0 0 0 0 0 0 0 1 2 2
1 2 3 3 2 1 1 1 0 0 0 0 0 0 0 0 0 0 0 0 0 0 0 0 0 0 0 0 0 1 1 1 1 0 0 0 0 0 0 0 1 1 1
0 1 2 1 1 0 0 0 0 0 0 0 0 0 0 0 0 0 0 0 0 0 0 0 0 0 0 0 0 0 0 0 0 0 0 0 0 0 0 0 0 0 1
0 0 0 0 0 0 0 0 0 0 0 0 0 0 0 0 0 0 0 0 0 0 0 0 0 0 0 0 0 0 0 0 0 0 0 0 0 0 0 0 0 0 0
0 0 0 0 0 0 0 0 0 0 0 0 0 0 0 0 0 0 0 0 0 0 0 0 0 0 0 0 0 0 0 0 0 0 0 0 0 0 0 0 0 0 0
0 0 0 0 0 0 0 0 0 0 0 0 0 0 0 0 0 0 0 0 0 0 0 0 0 0 0 0 0 0 0 0 0 0 0 0 0 0 0 0 0 0 0
0 0 0 0 0 0 0 0 0 0 0 0 0 0 0 0 0 0 0 0 0 0 0 0 0 0 0 0 0 0 0 0 0 0 0 0 0 0 0 0 0 0 0
0 0 0 0 0 0 0 0 0 0 0 0 0 0 0 0 0 0 0 0 0 0 0 0 0 0 0 0 0 0 0 0 0 0 0 0 0 0 0 0 0 0 0
0 0 0 0 0 0 0 0 0 0 0 0 0 0 0 0 0 0 0 0 0 0 0 0 0 0 0 0 0 0 0 0 0 0 0 0 0 0 0 0 0 0 0
Wind_Speed
3 4 8 8 9 10 10 10 10 9 9 9 9 9 9 8 8 7 7 6 6 6 6 6 6 6 7 7 7 8 8 8 9 9 8 7 7 8 8 8 7 5 9
5 5 8 8 9 10 10 10 9 8 8 8 8 8 8 7 7 6 6 6 6 5 5 6 6 6 6 6 6 6 6 6 6 6 6 5 5 7 8 7 6 4 7
6 6 7 8 9 9 10 9 9 8 7 7 7 7 7 6 6 6 5 5 5 5 5 5 5 5 4 4 4 4 4 4 4 4 3 2 2 5 6 6 6 6 6
7 6 6 9 9 10 10 9 8 7 7 6 6 6 5 5 5 5 5 4 4 4 4 3 3 3 3 3 3 2 2 2 2 2 1 0 0 3 5 5 5 5 5
6 5 6 9 9 9 9 9 8 7 6 6 5 5 4 4 4 4 4 4 3 3 3 2 2 2 2 2 1 0 0 1 1 1 1 1 1 3 3 4 4 4 4
5 4 6 9 9 8 8 7 7 6 6 5 5 4 3 3 3 3 3 3 3 2 2 2 1 1 1 1 2 1 1 1 1 0 1 1 2 3 4 4 4 4 3
5 4 5 8 8 8 7 6 6 5 5 4 4 4 3 3 2 2 2 2 2 2 2 2 1 2 2 2 3 3 2 1 0 1 1 2 3 4 4 5 4 4 4
6 5 4 7 7 7 7 6 5 4 4 3 3 3 2 2 2 1 1 2 2 2 3 3 3 3 3 3 4 4 3 2 1 1 2 2 5 6 5 5 5 5 4
6 5 4 3 4 5 5 5 4 3 3 2 2 2 1 1 0 1 1 1 2 3 3 3 4 4 4 4 5 4 4 3 2 2 3 3 6 7 7 6 6 6 6
5 5 4 3 3 2 2 4 4 3 3 3 2 2 1 1 0 0 1 1 2 2 3 4 4 5 5 5 6 5 4 3 3 3 3 4 8 9 8 8 7 7 7
5 4 4 4 3 2 2 3 3 3 3 3 2 2 2 0 0 0 1 1 2 2 3 4 4 5 5 5 6 6 4 2 3 3 3 7 9 9 9 9 8 8 8
3 3 3 3 3 3 2 2 1 2 2 2 1 1 1 0 1 1 1 2 2 3 3 4 4 4 3 2 4 5 2 3 3 3 4 9 10 10 10 10 9 9 9
3 3 3 3 3 3 2 2 1 1 1 2 2 1 1 1 1 1 1 1 2 2 2 3 3 2 2 2 2 2 3 3 2 3 4 8 10 10 10 10 9 9 9
4 2 2 2 3 3 2 2 2 1 1 1 1 2 1 1 1 1 0 1 1 1 1 1 1 2 3 3 3 3 3 2 3 3 4 8 9 11 10 10 9 9 9
3 2 2 2 2 2 2 2 2 2 1 1 1 2 1 1 1 1 1 1 1 1 1 2 2 2 3 3 4 4 4 4 4 3 3 6 8 9 10 10 11 10 10
3 2 2 2 2 2 2 2 1 1 1 1 2 2 2 1 1 1 1 1 1 1 1 2 2 2 3 3 4 4 4 4 3 3 3 4 6 8 9 11 11 11 11
3 2 1 2 3 3 2 2 2 1 2 2 2 2 3 2 1 1 1 1 2 2 2 2 2 2 2 3 3 4 3 3 3 3 3 3 3 6 8 10 10 10 11
3 2 2 2 3 2 2 2 1 2 2 2 2 2 3 3 2 1 1 1 2 2 1 2 1 2 2 2 3 3 3 3 3 3 3 3 2 3 4 7 8 8 9
3 2 2 2 2 2 2 2 2 2 2 2 2 2 3 3 3 2 1 1 2 1 1 2 2 1 2 3 3 3 3 3 3 3 3 3 2 2 2 4 6 7 7
2 2 2 2 2 2 2 2 2 2 2 2 2 2 2 2 3 2 2 2 2 1 1 2 2 2 2 3 4 3 3 3 2 2 3 2 2 2 2 2 2 4 5
2 1 1 1 1 2 1 1 1 1 2 2 2 2 2 3 3 2 2 3 2 1 2 2 2 2 2 2 2 3 3 3 2 2 2 1 2 2 1 1 1 1 2
2 1 0 0 0 0 0 0 0 0 1 1 1 2 3 3 3 3 3 3 3 2 2 2 1 1 2 1 1 1 3 3 2 2 1 1 2 1 1 1 1 1 2
2 2 1 1 1 0 0 1 1 1 2 2 2 2 2 2 2 2 3 3 3 2 2 3 2 1 2 2 1 1 1 3 3 2 2 1 2 1 1 1 1 1 1
4 2 2 2 1 0 0 1 1 0 1 1 1 2 2 2 2 2 2 2 2 2 3 3 2 2 2 2 2 1 2 2 2 4 3 2 2 2 2 1 1 1 1
4 3 2 2 1 1 0 1 0 0 1 1 1 2 2 2 2 2 2 2 2 2 3 3 3 2 1 2 2 1 2 1 2 3 4 3 2 2 1 1 1 1 1
2 2 2 2 2 1 1 1 1 2 2 2 2 2 2 2 2 2 2 2 2 2 3 3 3 2 2 2 2 2 2 2 2 2 4 4 4 2 2 1 1 1 1
Wind_Direction
159 170 150 137 131 127 122 118 114 111 106 104 104 103 102 101 100 98 99 105 108 107 107 104 98 98 99 96 94 92 92 91 89 86 80 80 88 92 92 93 84 74 82
155 161 146 135 132 130 125 120 117 115 112 109 108 107 105 104 103 102 103 104 104 104 103 104 102 98 99 100 100 100 102 101 97 89 79 73 82 95 98 96 97 93 90
138 142 139 131 129 130 127 123 120 119 116 115 114 113 110 107 105 103 103 104 101 95 100 101 102 102 102 104 107 110 110 113 111 101 90 75 90 104 105 103 101 100 99
134 134 134 127 126 129 129 126 123 121 119 118 117 118 117 114 110 108 105 99 95 91 97 103 103 109 111 116 120 123 117 113 125 131 119 166 173 126 120 117 114 110 105
121 125 131 125 123 124 127 126 124 123 121 119 117 115 117 119 119 117 114 106 101 98 104 114 118 117 133 146 150 131 54 93 97 113 137 178 201 156 146 140 138 129 124
109 113 125 121 119 117 119 125 124 124 122 120 122 121 122 122 125 123 120 119 116 118 125 139 150 167 188 212 227 262 300 317 56 86 161 189 200 183 171 163 156 154 154
107 108 121 113 114 113 112 113 121 125 125 124 127 133 131 129 133 138 139 146 154 168 174 185 205 220 239 250 259 270 285 296 184 183 202 214 208 196 186 178 178 181 180
110 104 110 108 106 107 109 108 108 116 123 122 125 134 138 140 148 160 171 178 188 200 209 219 232 242 256 263 273 284 288 272 228 209 221 225 220 210 203 197 195 197 198
99 96 88 90 97 100 99 100 101 98 100 107 107 102 103 94 121 204 214 216 215 218 226 233 241 250 259 266 273 283 287 270 230 228 237 228 225 224 218 212 209 209 211
83 83 80 75 77 92 96 88 82 81 74 65 70 66 54 43 5 332 269 265 250 240 242 245 249 256 264 268 272 275 280 276 243 235 237 235 233 232 228 221 218 218 221
68 65 71 68 62 62 88 69 64 67 59 54 46 60 58 25 286 245 295 294 277 270 263 260 261 266 271 270 272 272 272 254 240 237 235 240 237 236 234 230 226 226 227
83 66 68 68 61 53 56 60 43 46 43 36 25 25 22 5 328 343 308 307 305 294 288 282 278 276 275 279 279 278 260 252 241 243 242 240 236 239 240 236 231 230 230
110 79 59 66 64 59 49 51 45 37 32 25 24 16 19 13 1 4 352 321 313 313 303 298 291 281 269 268 274 274 263 254 242 248 250 241 238 242 243 238 235 232 232
100 82 61 57 59 53 53 43 54 45 32 25 7 14 45 29 9 351 324 304 307 300 290 287 279 274 272 267 265 270 273 264 253 248 249 245 245 245 246 243 240 239 238
101 84 62 61 62 55 54 36 43 36 30 12 3 1 27 46 357 345 324 315 298 293 283 283 282 277 273 273 269 268 268 258 256 253 258 250 248 247 249 248 246 245 245
115 98 66 61 60 63 61 49 40 27 21 15 6 352 358 12 360 347 341 331 315 304 288 277 279 276 271 270 273 272 263 257 250 249 254 256 253 253 255 255 253 251 250
132 113 87 83 61 56 51 40 40 24 32 22 2 358 1 3 5 6 347 326 314 314 311 305 303 301 300 298 288 281 273 265 264 255 256 255 256 255 258 263 263 258 256
125 105 63 61 58 52 49 36 28 25 33 19 4 6 9 8 16 20 1 324 315 323 328 321 323 316 311 304 292 286 281 272 265 259 255 256 251 256 255 261 267 265 262
126 119 85 59 52 40 42 38 38 36 31 15 12 16 9 3 3 4 349 322 324 331 332 322 330 310 301 299 288 283 281 272 265 267 258 257 257 256 252 257 258 265 267
115 111 107 70 47 46 44 38 30 29 16 16 16 8 7 359 358 356 345 335 338 337 327 317 307 306 288 288 294 296 285 277 269 262 257 260 265 266 261 257 254 264 265
113 97 102 91 44 45 39 40 30 357 345 359 2 357 3 4 0 360 351 336 336 328 311 312 306 301 301 305 312 312 300 286 283 268 258 260 281 277 271 265 270 282 281
153 163 169 150 101 48 39 166 195 230 293 315 339 353 1 3 355 355 354 335 334 329 323 318 310 296 289 309 299 314 317 319 306 288 277 263 282 293 289 284 282 285 287
184 196 200 212 204 281 8 45 31 28 6 3 355 349 346 352 354 349 343 336 331 329 314 303 290 268 278 287 263 218 259 273 307 300 287 289 297 298 291 283 286 290 302
208 203 211 214 208 210 96 86 83 73 278 283 305 313 324 340 342 346 342 336 328 324 317 308 305 275 253 268 280 259 241 230 266 299 305 306 307 296 291 307 311 325 327
192 188 206 209 224 227 149 151 143 255 253 280 305 318 326 331 340 346 341 336 327 318 309 308 309 294 261 247 250 258 259 257 228 247 285 303 304 289 300 300 305 313 315
180 190 203 205 232 232 217 218 212 239 257 284 298 302 312 314 324 334 335 328 316 309 301 299 298 294 282 267 256 239 231 233 234 237 262 285 289 287 292 288 299 296 299